TimeGMT,TemperatureF,Dew PointF,Humidity,Sea Level PressureIn,VisibilityMPH,Wind Direction,Wind SpeedMPH,Gust SpeedMPH,PrecipitationIn,Events,Conditions,WindDirDegrees,DateUTC
12:20 AM,44.6,39.2,81,29.83,6.2,North,10.4,-,N/A,,Mostly Cloudy,360,2012-11-28 00:20:00
12:50 AM,42.8,39.2,87,29.83,6.2,NNW,10.4,-,N/A,,Mostly Cloudy,340,2012-11-28 00:50:00
1:20 AM,42.8,39.2,87,29.83,6.2,North,11.5,-,N/A,,Mostly Cloudy,350,2012-11-28 01:20:00
1:50 AM,42.8,39.2,87,29.83,6.2,North,12.7,-,N/A,,Mostly Cloudy,350,2012-11-28 01:50:00
2:20 AM,42.8,39.2,87,29.86,6.2,North,12.7,-,N/A,,Mostly Cloudy,350,2012-11-28 02:20:00
2:50 AM,42.8,39.2,87,29.86,6.2,NNW,15.0,-,N/A,,Mostly Cloudy,340,2012-11-28 02:50:00
3:20 AM,42.8,39.2,87,29.86,6.2,North,15.0,-,N/A,,Mostly Cloudy,350,2012-11-28 03:20:00
3:50 AM,42.8,39.2,87,29.86,6.2,North,11.5,-,N/A,Rain,Light Rain,350,2012-11-28 03:50:00
4:20 AM,42.8,39.2,87,29.86,6.2,North,10.4,-,N/A,Rain,Light Rain,360,2012-11-28 04:20:00
4:50 AM,42.8,39.2,87,29.86,6.2,North,11.5,-,N/A,,Mostly Cloudy,350,2012-11-28 04:50:00
5:20 AM,42.8,39.2,87,29.86,6.2,North,12.7,-,N/A,,Mostly Cloudy,350,2012-11-28 05:20:00
5:50 AM,42.8,37.4,81,29.86,6.2,North,15.0,-,N/A,,Mostly Cloudy,350,2012-11-28 05:50:00
6:20 AM,42.8,37.4,81,29.86,6.2,North,11.5,-,N/A,,Mostly Cloudy,350,2012-11-28 06:20:00
6:50 AM,42.8,37.4,81,29.89,6.2,North,10.4,-,N/A,,Mostly Cloudy,350,2012-11-28 06:50:00
7:20 AM,42.8,37.4,81,29.89,6.2,North,11.5,-,N/A,,Mostly Cloudy,350,2012-11-28 07:20:00
7:50 AM,42.8,37.4,81,29.89,6.2,North,11.5,-,N/A,,Mostly Cloudy,350,2012-11-28 07:50:00
8:20 AM,42.8,37.4,81,29.89,6.2,North,10.4,-,N/A,,Mostly Cloudy,350,2012-11-28 08:20:00
8:50 AM,42.8,37.4,81,29.89,6.2,NNW,11.5,-,N/A,,Mostly Cloudy,340,2012-11-28 08:50:00
9:20 AM,42.8,37.4,81,29.89,6.2,North,11.5,-,N/A,,Mostly Cloudy,350,2012-11-28 09:20:00
9:50 AM,42.8,37.4,81,29.92,6.2,North,10.4,25.3,N/A,,Mostly Cloudy,350,2012-11-28 09:50:00
10:20 AM,42.8,39.2,87,29.92,5.6,North,13.8,-,N/A,Rain,Light Rain,350,2012-11-28 10:20:00
10:50 AM,42.8,39.2,87,29.92,6.2,North,11.5,26.5,N/A,Rain,Light Rain Showers,350,2012-11-28 10:50:00
11:20 AM,42.8,39.2,87,29.92,6.2,North,12.7,-,N/A,,Mostly Cloudy,360,2012-11-28 11:20:00
11:50 AM,42.8,39.2,87,29.92,6.2,Variable,15.0,-,N/A,,Mostly Cloudy,0,2012-11-28 11:50:00
12:20 PM,42.8,39.2,87,29.92,6.2,North,13.8,-,N/A,Rain,Light Rain,350,2012-11-28 12:20:00
12:50 PM,42.8,39.2,87,29.89,6.2,North,12.7,-,N/A,,Mostly Cloudy,350,2012-11-28 12:50:00
1:20 PM,44.6,37.4,76,29.89,6.2,North,11.5,-,N/A,,Mostly Cloudy,350,2012-11-28 13:20:00
1:50 PM,44.6,37.4,76,29.89,6.2,NNW,12.7,-,N/A,,Mostly Cloudy,340,2012-11-28 13:50:00
2:20 PM,44.6,37.4,76,29.89,6.2,North,16.1,-,N/A,,Mostly Cloudy,350,2012-11-28 14:20:00
2:50 PM,44.6,37.4,76,29.89,6.2,North,15.0,-,N/A,,Mostly Cloudy,350,2012-11-28 14:50:00
3:20 PM,42.8,39.2,87,29.92,5.0,North,13.8,-,N/A,Rain,Light Rain Showers,350,2012-11-28 15:20:00
3:50 PM,42.8,39.2,87,29.92,5.0,North,13.8,-,N/A,Rain,Light Rain Showers,350,2012-11-28 15:50:00
4:20 PM,42.8,39.2,87,29.92,6.2,North,12.7,-,N/A,Rain,Light Rain,350,2012-11-28 16:20:00
4:50 PM,42.8,37.4,81,29.92,6.2,North,13.8,-,N/A,,Overcast,350,2012-11-28 16:50:00
5:20 PM,42.8,37.4,81,29.92,6.2,North,12.7,-,N/A,,Mostly Cloudy,350,2012-11-28 17:20:00
5:50 PM,42.8,37.4,81,29.92,6.2,North,13.8,-,N/A,,Mostly Cloudy,350,2012-11-28 17:50:00
6:20 PM,42.8,35.6,76,29.92,6.2,North,13.8,-,N/A,,Mostly Cloudy,350,2012-11-28 18:20:00
6:50 PM,42.8,35.6,76,29.92,6.2,North,13.8,-,N/A,,Mostly Cloudy,350,2012-11-28 18:50:00
7:20 PM,41.0,35.6,81,29.95,6.2,NNW,15.0,-,N/A,,Mostly Cloudy,340,2012-11-28 19:20:00
7:50 PM,41.0,35.6,81,29.95,6.2,North,13.8,-,N/A,,Mostly Cloudy,350,2012-11-28 19:50:00
8:20 PM,41.0,35.6,81,29.95,6.2,NNW,12.7,-,N/A,,Mostly Cloudy,340,2012-11-28 20:20:00
8:50 PM,41.0,33.8,76,29.95,6.2,NNW,10.4,21.9,N/A,,Mostly Cloudy,340,2012-11-28 20:50:00
9:20 PM,39.2,33.8,81,29.95,6.2,NNW,9.2,-,N/A,,Mostly Cloudy,340,2012-11-28 21:20:00
9:50 PM,39.2,33.8,81,29.95,6.2,NNW,8.1,-,N/A,,Mostly Cloudy,340,2012-11-28 21:50:00
10:20 PM,39.2,33.8,81,29.95,6.2,NNW,8.1,-,N/A,,Mostly Cloudy,340,2012-11-28 22:20:00
10:50 PM,37.4,32.0,81,29.95,6.2,NNW,10.4,-,N/A,,Scattered Clouds,340,2012-11-28 22:50:00
11:20 PM,37.4,32.0,81,29.95,6.2,NNW,8.1,-,N/A,,Scattered Clouds,330,2012-11-28 23:20:00
11:50 PM,35.6,32.0,87,29.95,6.2,NW,5.8,-,N/A,,Scattered Clouds,320,2012-11-28 23:50:00